Погода в Калининском

Россия / Саратовская область     51°30′52″N   47°05′24″E
темп.,
°C
ветер,
м/с
пор.,
м/с
влажн.,
%
обл.,
%
осадки,
мм/ч
давл.,
гПа
погр.,
м
2 августа, пн
пн201:00+25вюв365179 0.0 1013111
04:00+24вюв345489 0.0 101358
07:00+24всв355786 0.0 1013130
10:00+29в33419 0.0 1014387
13:00+34юв33265 0.0 10131046
16:00+36ссз35183 0.0 10112989
19:00+34ссв342586 0.0 101058
22:00+30в472726 0.0 1011105
3 августа, вт
вт301:00+26ююв33355 0.0 101136
04:00+25ююз33395 0.0 101138
07:00+26ююз37445 0.0 1011160
10:00+34ююз57252 0.0 1011762
13:00+38зюз681834 0.0 10103590
16:00+37зсз10101929 0.0 10091692
19:00+30ссз484071 0.0 1010380
22:00+24всв4650100 0.0 1010112
4 августа, ср
ср401:00+23вюв4851100 0.0 1010130
04:00+22ссз4656100 0.0 1011101
07:00+24всв2451100 0.0 1011100
10:00+27сз334480 0.1 1011477
13:00+29юв2242100 0.0 1011757
16:00+31зсз3337100 0.0 10101476
19:00+29зюз574493 0.0 1012877
22:00+24ссз5106874 0.4 1013326
5 августа, чт
чт501:00+20ссз48800 0.1 1014196
04:00+19ссз368476 0.1 1015130
07:00+20с4873100 0.0 1015240
10:00+25с5844100 0.0 10151114
13:00+29с662818 0.0 10152316
16:00+29с55266 0.0 10142624
19:00+27ссз573128 0.0 1015695
22:00+21сз48485 0.0 1015128
6 августа, пт
пт601:00+19ссз34565 0.0 101554
04:00+18с3458100 0.0 101546
07:00+19с24563 0.0 1016127
10:00+26с35383 0.0 10161181
13:00+29с56260 0.0 10162447
16:00+30с562721 0.0 10152651
19:00+28ссв563112 0.0 1015941
22:00+22ссв47437 0.0 1016102